This demonstration page uses our WeatherBlox Daily Observations layout. Learn more.

41.86663, -103.66717

Hourly Observations for May 28, 2019

Temp ( °F °C ) Dew Point ( °F °C ) Humidity (%) Winds ( mph kmh ) Pressure ( in mb ) Visibility ( mi km ) Precip ( " mm )
12:53 am 00:53 Cloudy 51 10.6 51 10.6 100 100 N 5 7 29.68 1005 10 16.09344 0.001 0.001
1:15 am 01:15 Cloudy 52 11.1 52 11.1 100 100 NNE 7 11 29.71 1006 10 16.09344 0 0
1:35 am 01:35 Cloudy 52 11.1 52 11.1 100 100 NNE 9 15 29.68 1005 10 16.09344 0 0
1:53 am 01:53 Cloudy 52 11.1 52 11.1 100 100 NNE 8 13 29.68 1005 10 16.09344 0 0
2:05 am 02:05 Cloudy with Light Rain 52 11.1 52 11.1 100 100 NNE 9 15 29.71 1006 6 9.656064 0.001 0.001
2:53 am 02:53 Cloudy 53 11.7 53 11.7 100 100 Calm 29.68 1005 10 16.09344 0.001 0.001
3:37 am 03:37 Cloudy 52 11.1 52 11.1 100 100 WNW 8 13 29.68 1005 10 16.09344 0 0
3:53 am 03:53 Cloudy 52 11.1 52 11.1 100 100 N 7 11 29.65 1004 10 16.09344 0 0
4:16 am 04:16 Mostly Cloudy 50 10 50 10 100 100 NNE 12 19 29.65 1004 10 16.09344 0 0
4:53 am 04:53 Partly Cloudy 51 10.6 51 10.6 100 100 NNE 10 17 29.65 1004 10 16.09344 0 0
5:40 am 05:40 Cloudy with Light Rain 52 11 52 11 100 100 NNE 10 17 29.68 1005 1.75 2.816352 0 0
5:53 am 05:53 Cloudy with Light Rain 51 10.6 51 10.6 100 100 NNE 13 20 29.68 1005 1.5 2.414016 0.02 0.508
5:59 am 05:59 Cloudy with Light Rain 52 11 N/A N/A NNE 10 17 29.68 1005 2.5 4.02336 0.001 0.001
6:12 am 06:12 Cloudy with Light Rain 52 11 52 11 100 100 NE 9 15 29.68 1005 3 4.828032 0 0
6:26 am 06:26 Cloudy with Light Rain 52 11.1 52 11.1 100 100 ENE 9 15 29.68 1005 3 4.828032 0.01 0.254
6:39 am 06:39 Cloudy with Light Rain 54 12 54 12 100 100 E 10 17 29.65 1004 1.75 2.816352 0 0
6:46 am 06:46 Cloudy with Light Rain 54 12 54 12 100 100 E 12 19 29.65 1004 2.5 4.02336 0 0
6:49 am 06:49 Cloudy with Light Rain 54 12 54 12 100 100 E 10 17 29.65 1004 3 4.828032 0.03 0.762
6:53 am 06:53 Cloudy with Light Rain 53 11.7 53 11.7 100 100 E 12 19 29.68 1005 4 6.437376 0.03 0.762
7:03 am 07:03 Cloudy 53 11.7 53 11.7 100 100 E 9 15 29.65 1004 9 14.484096 0.001 0.001
7:18 am 07:18 Cloudy 54 12 54 12 100 100 E 10 17 29.65 1004 10 16.09344 0 0
7:42 am 07:42 Cloudy 53 11.7 53 11.7 100 100 E 10 17 29.65 1004 10 16.09344 0.001 0.001
7:53 am 07:53 Cloudy 53 11.7 53 11.7 100 100 E 10 17 29.68 1005 10 16.09344 0.001 0.001
8:08 am 08:08 Cloudy with Light Rain 54 12.2 54 12.2 100 100 ESE 12 19 29.65 1004 10 16.09344 0.001 0.001
8:17 am 08:17 Cloudy with Nearby Thunderstorms 53 11.7 53 11.7 100 100 ESE 13 20 29.65 1004 6 9.656064 0.001 0.001
8:19 am 08:19 Cloudy with Nearby Thunderstorms 53 11.7 53 11.7 100 100 ESE 13 20 29.65 1004 5 8.04672 0.01 0.254
8:25 am 08:25 Cloudy with Nearby Thunderstorms 53 11.7 53 11.7 100 100 ESE 13 20 29.65 1004 2.5 4.02336 0.03 0.762
8:29 am 08:29 Cloudy with Rain 53 11.7 53 11.7 100 100 ESE 14 22 29.65 1004 3 4.828032 0.06 1.524
8:53 am 08:53 Cloudy with Light Rain 50 10 49 9.4 96 96 WNW 14 22 29.71 1006 10 16.09344 0.07 1.778
9:53 am 09:53 Cloudy with Light Rain 51 10.6 51 10.6 100 100 WNW 7 11 29.71 1006 10 16.09344 0.04 1.016
10:53 am 10:53 Cloudy 53 11.7 51 10.6 93 93 NW 13 20 29.71 1006 10 16.09344 0.01 0.254
11:16 am 11:16 Cloudy with Light Rain 54 12 50 10 88 88 NW 10 17 29.68 1005 10 16.09344 0 0
11:53 am 11:53 Cloudy 53 11.7 50 10 89 89 NNW 12 19 29.71 1006 10 16.09344 0.001 0.001
12:34 pm 12:34 Cloudy with Light Rain 52 11 52 11 100 100 NNE 3 6 29.71 1006 2 3.218688 0 0
12:42 pm 12:42 Cloudy with Rain 51 10.6 51 10.6 100 100 WNW 3 6 29.71 1006 1.25 2.01168 0.04 1.016
12:53 pm 12:53 Cloudy with Rain 52 11.1 52 11.1 100 100 ENE 3 6 29.71 1006 1.75 2.816352 0.08 2.032
1:04 pm 13:04 Cloudy with Heavy Rain 52 11 52 11 100 100 E 7 11 29.71 1006 0.75 1.207008 0 0
1:11 pm 13:11 Cloudy with Light Rain 52 11.1 52 11.1 100 100 ENE 10 17 29.71 1006 1 1.609344 0.1 2.54
1:18 pm 13:18 Cloudy with Light Rain 52 11.1 52 11.1 100 100 ENE 10 17 29.71 1006 2 3.218688 0.1 2.54
1:23 pm 13:23 Cloudy with Light Rain 52 11.1 52 11.1 100 100 ENE 16 26 29.71 1006 3 4.828032 0.11 2.794
1:27 pm 13:27 Cloudy with Light Rain 52 11.1 52 11.1 100 100 NE 16 26 29.71 1006 2.5 4.02336 0.11 2.794
1:47 pm 13:47 Cloudy with Light Rain 52 11 52 11 100 100 ENE 14 22 29.74 1007 1.75 2.816352 0.12 3.048
1:53 pm 13:53 Cloudy with Heavy Rain 51 10.6 51 10.6 100 100 E 17 28 29.74 1007 1 1.609344 0.14 3.556
1:56 pm 13:56 Cloudy with Heavy Rain 50 10 50 10 100 100 ENE 15 24 29.74 1007 0.75 1.207008 0.06 1.524
2:08 pm 14:08 Cloudy with Rain 50 10 50 10 100 100 NNE 14 22 29.74 1007 1.75 2.816352 0 0
2:13 pm 14:13 Cloudy with Rain 51 10.6 51 10.6 100 100 NE 13 20 29.74 1007 3 4.828032 0.15 3.81
2:28 pm 14:28 Cloudy with Rain 50 10 50 10 100 100 NE 15 24 29.74 1007 4 6.437376 0 0
2:53 pm 14:53 Cloudy with Light Rain 51 10.6 50 10 96 96 NE 20 31 29.74 1007 10 16.09344 0.22 5.588
3:53 pm 15:53 Cloudy with Light Rain 50 10 49 9.4 96 96 NE 18 30 29.77 1008 6 9.656064 0.01 0.254
4:49 pm 16:49 Cloudy with Rain 50 10 48 9 94 94 NE 14 22 29.8 1009 3 4.828032 0.07 1.778
4:53 pm 16:53 Cloudy with Rain 50 10 49 9.4 96 96 NE 14 22 29.77 1008 3 4.828032 0.08 2.032
4:56 pm 16:56 Cloudy with Rain 50 10 49 9.4 96 96 NE 14 22 29.8 1009 2.5 4.02336 0.01 0.254
5:10 pm 17:10 Cloudy with Light Rain 50 10 48 9 94 94 NE 18 30 29.8 1009 4 6.437376 0 0
5:17 pm 17:17 Cloudy with Rain 49 9.4 49 9.4 100 100 NE 14 22 29.8 1009 3 4.828032 0.06 1.524
5:26 pm 17:26 Cloudy with Rain 48 9 48 9 100 100 NE 16 26 29.8 1009 2.5 4.02336 0 0
5:53 pm 17:53 Cloudy with Light Rain 49 9.4 49 9.4 100 100 NNE 16 26 29.8 1009 3 4.828032 0.17 4.318
6:01 pm 18:01 Cloudy with Light Rain 49 9.4 48 8.9 97 97 NNE 15 24 29.8 1009 5 8.04672 0.01 0.254
6:53 pm 18:53 Cloudy with Light Rain 49 9.4 47 8.3 93 93 NNE 16 26 29.8 1009 9 14.484096 0.04 1.016
7:53 pm 19:53 Cloudy with Light Rain 48 8.9 45 7.2 89 89 NNE 16 26 29.83 1010 10 16.09344 0.01 0.254
8:53 pm 20:53 Cloudy with Light Rain 47 8.3 46 7.8 97 97 N 10 17 29.88 1012 7 11.265408 0.08 2.032
9:53 pm 21:53 Cloudy with Light Rain 46 7.8 45 7.2 96 96 N 10 17 29.91 1013 8 12.874752 0.07 1.778
10:53 pm 22:53 Cloudy with Light Rain 46 7.8 45 7.2 96 96 N 7 11 29.94 1014 8 12.874752 0.05 1.27
11:53 pm 23:53 Cloudy with Light Rain 46 7.8 45 7.2 96 96 NNW 6 9 29.94 1014 7 11.265408 0.06 1.524

Powered by AerisWeather